Wind_Speed
2 3 4 4 4 4 5 5 6 6 7 7 8 8 7 8 8 8 8 8 9 10 10 11 12 12 11 11 11 12 12 12 12 11 10 9 9 8 7 7 6 5 4
2 3 3 4 4 5 5 6 6 7 7 7 7 8 8 8 8 8 8 8 9 10 10 11 11 12 12 12 12 12 12 12 13 12 11 10 10 9 8 7 6 6 5
2 3 3 4 4 5 6 6 6 7 7 7 7 7 8 8 8 8 9 9 9 9 10 10 11 12 12 12 12 12 12 12 13 13 12 11 11 10 9 8 7 6 5
2 3 4 4 4 5 6 6 6 6 7 7 7 7 8 8 9 9 9 10 10 10 10 11 11 12 12 12 13 13 12 12 12 13 13 12 11 10 9 8 7 6 5
2 3 4 4 4 5 6 6 6 6 7 7 8 8 9 9 9 10 10 10 11 11 11 11 12 12 12 12 12 13 13 12 12 12 13 12 12 11 10 9 8 7 6
2 3 3 4 4 5 6 6 6 6 7 8 8 9 9 10 10 11 11 12 12 12 12 11 11 11 11 12 12 12 12 12 12 12 13 12 12 12 11 10 9 8 7
2 3 3 4 5 5 5 6 6 6 7 8 8 9 10 10 11 11 12 12 12 12 11 11 11 11 11 11 12 12 12 11 11 11 12 13 13 12 12 11 10 9 7
1 2 4 4 5 5 5 5 6 7 8 9 9 10 10 11 11 11 12 12 12 12 11 11 11 11 11 11 11 11 12 11 11 11 12 12 13 13 12 12 11 10 9
1 2 3 4 4 5 5 6 6 7 8 9 10 10 11 11 12 12 12 12 12 12 12 11 11 11 11 11 11 11 12 11 12 12 12 12 13 13 13 13 12 11 10
1 2 3 3 4 4 5 6 7 8 9 9 10 10 11 11 12 12 12 12 12 12 12 11 11 11 11 12 12 12 12 12 12 12 13 12 13 14 14 13 12 11 11
1 2 3 3 4 5 6 6 7 8 9 10 10 11 11 11 12 12 12 12 12 12 12 11 11 11 11 11 11 12 12 12 11 11 12 12 13 14 14 14 13 12 11
2 2 3 4 4 5 6 6 7 8 9 10 10 11 11 11 12 12 12 12 12 12 12 12 12 12 11 11 11 11 12 12 12 11 11 12 13 14 15 15 14 13 12
2 3 3 3 4 5 6 7 7 8 9 9 10 11 11 11 11 12 12 13 12 12 13 13 12 12 12 11 11 11 11 12 12 12 12 12 13 14 15 15 15 14 14
3 3 4 4 4 5 6 7 7 7 8 9 10 11 11 11 12 12 13 13 13 13 13 13 13 12 11 11 11 11 11 12 12 12 13 13 13 14 15 15 16 15 15
3 3 4 5 5 5 6 6 6 7 8 9 10 10 11 11 12 12 13 14 14 13 13 13 12 12 11 11 11 11 11 11 12 13 13 14 14 14 15 16 17 16 16
3 4 4 4 5 5 6 6 6 6 7 9 10 11 11 12 12 13 13 13 13 13 13 13 12 12 11 11 10 9 9 10 11 13 13 14 14 15 16 16 17 18 18
3 4 4 4 4 5 5 6 5 6 7 8 9 11 12 12 12 13 13 13 13 13 13 13 12 11 11 10 9 9 9 9 10 12 13 14 14 15 16 17 17 18 18
3 3 4 4 5 5 5 5 5 6 6 7 9 10 11 12 12 13 13 14 14 14 14 13 12 11 10 10 9 9 8 8 9 11 12 13 14 16 17 17 18 18 19
3 3 3 4 4 4 5 5 5 6 6 7 9 10 11 12 12 13 14 14 14 14 14 13 12 11 11 10 9 8 8 7 8 10 12 13 13 15 17 18 18 18 18
3 3 3 3 3 4 4 4 5 6 6 7 8 10 11 12 13 14 14 14 15 14 14 13 13 12 11 10 9 8 7 7 8 9 11 13 13 14 16 17 18 19 18
2 2 2 2 2 3 4 4 4 5 6 7 8 9 10 11 13 14 14 15 15 15 14 13 13 12 12 11 9 8 7 7 8 9 11 12 13 14 15 17 18 18 19
2 1 1 2 2 3 4 4 5 6 7 8 9 10 11 12 13 14 14 15 15 15 15 14 13 13 12 11 10 8 7 6 7 9 10 12 13 15 16 17 17 18 19
3 2 1 1 2 3 4 4 5 6 7 8 9 9 10 11 12 13 14 14 15 15 15 15 14 14 13 12 10 9 7 6 6 7 10 12 13 15 16 17 17 18 19
3 2 2 2 2 3 4 5 5 6 7 8 9 10 10 11 12 13 14 14 15 16 16 15 15 15 14 13 11 9 7 7 6 6 8 11 13 14 15 17 17 18 18
3 2 2 2 3 3 4 5 5 6 7 8 8 9 10 11 12 13 14 15 15 16 16 16 15 15 15 13 12 10 8 7 6 6 7 9 11 13 15 16 17 18 18
2 2 2 3 3 3 4 4 5 6 8 9 9 10 11 12 13 14 14 15 16 16 17 16 16 16 15 14 12 11 9 8 7 7 7 8 10 13 15 16 17 18 19
Wind_Direction
3 10 358 357 0 1 357 355 346 338 334 332 330 329 327 324 321 317 312 305 302 298 292 286 284 282 280 275 269 265 263 262 261 260 259 254 251 252 251 248 247 249 251
12 6 358 358 1 357 351 346 340 338 336 335 333 329 326 323 321 317 314 311 307 301 296 290 286 284 280 278 271 266 264 262 258 257 257 254 250 250 248 247 247 248 247
9 8 1 356 352 350 344 339 339 338 336 333 331 329 327 326 324 320 317 313 309 304 300 294 290 285 279 276 272 268 266 264 259 255 255 253 249 248 245 244 244 246 245
12 6 0 350 345 344 343 338 338 337 333 332 330 327 327 326 323 320 317 314 311 306 300 295 292 287 281 276 272 268 267 266 261 254 251 249 247 245 242 240 239 240 240
7 1 1 356 348 344 341 339 338 335 333 330 327 324 323 321 318 316 315 314 312 307 302 298 294 288 282 279 274 269 266 264 259 253 250 248 244 240 238 237 235 237 237
9 3 2 358 348 341 338 338 336 335 335 330 326 323 321 320 318 316 315 313 311 307 303 301 299 292 285 280 276 271 267 263 258 252 249 246 241 237 235 234 234 234 230
14 5 360 355 342 339 338 341 337 332 332 331 326 323 321 320 318 317 316 314 312 308 304 302 300 295 289 283 280 273 268 261 257 251 246 243 239 236 234 232 233 230 221
5 4 359 353 346 343 338 334 332 331 331 331 329 325 323 321 319 319 318 316 313 309 306 303 301 297 293 286 280 275 269 262 256 250 246 243 239 236 233 231 230 229 224
357 357 354 348 345 340 336 334 334 333 332 330 328 327 327 326 325 325 323 321 317 313 311 306 302 298 293 289 281 273 270 266 257 252 247 243 239 234 231 227 227 227 223
342 336 342 341 335 335 333 333 334 333 332 331 331 331 329 327 326 328 327 325 322 319 315 312 307 302 295 291 283 275 270 267 259 251 246 241 236 231 226 223 222 223 217
339 328 327 331 327 329 330 329 331 332 334 335 336 335 334 331 330 330 330 329 326 322 319 315 314 310 302 294 285 277 270 265 259 252 245 238 233 229 223 220 217 215 212
300 313 312 314 317 322 323 325 329 333 338 340 341 339 338 336 334 332 331 330 327 324 321 317 315 312 306 296 287 278 270 264 258 252 244 238 232 226 221 219 215 213 211
276 291 295 301 311 317 321 323 328 335 341 343 344 343 341 339 337 334 333 333 331 327 323 320 317 313 307 299 291 280 269 262 256 250 242 236 232 227 222 218 214 211 209
274 283 291 308 318 322 326 325 329 338 342 343 346 347 344 342 341 339 338 337 336 331 327 323 321 317 309 301 294 284 270 260 252 244 239 234 230 226 221 217 213 209 207
280 281 290 307 313 318 322 324 329 338 342 344 347 348 346 344 344 343 341 341 339 335 330 326 322 319 313 304 297 287 272 259 251 242 238 233 229 225 220 217 214 209 208
292 294 296 297 303 310 316 320 326 334 341 348 350 350 349 348 348 348 347 346 345 344 340 334 330 324 318 310 300 291 276 262 250 240 236 231 227 223 220 218 214 210 208
291 301 297 288 300 305 314 321 326 335 344 352 354 353 352 351 352 353 354 352 350 349 345 341 336 330 325 318 306 296 282 266 249 239 234 230 226 222 219 218 215 210 208
291 296 293 284 294 299 315 323 328 336 344 352 357 356 355 354 354 355 355 353 351 351 348 345 341 337 331 323 312 301 289 272 251 239 232 229 225 220 219 217 217 213 210
289 292 297 299 299 303 312 328 338 341 343 350 355 356 355 355 355 355 354 354 352 351 351 349 346 343 338 330 319 306 292 274 254 240 232 229 225 222 219 217 217 214 212
274 287 296 301 307 311 320 331 344 345 346 348 351 353 353 354 354 354 355 354 354 353 352 351 349 345 341 336 327 315 297 276 257 243 233 228 225 222 220 217 217 215 214
251 272 284 296 313 317 328 331 341 342 341 342 344 346 348 350 352 352 353 354 354 354 352 351 349 346 343 340 333 323 305 280 261 245 236 228 224 222 219 218 216 214 214
233 240 272 301 314 319 324 332 332 341 340 340 340 340 344 346 349 351 352 353 355 355 353 351 350 347 343 340 334 327 315 290 265 249 238 231 227 222 219 218 217 216 217
218 222 248 300 318 320 322 325 330 335 343 346 345 345 347 348 349 351 352 354 355 355 353 350 349 347 343 338 332 326 319 304 276 255 241 233 228 221 219 218 219 218 220
216 227 248 281 312 325 327 323 331 337 344 347 347 348 348 349 350 350 351 352 352 352 351 349 347 346 343 340 335 327 318 305 288 266 245 235 229 223 221 220 220 221 222
223 237 259 285 310 322 328 330 333 336 341 344 341 342 342 344 347 348 349 350 351 350 349 347 346 344 342 338 333 324 316 305 293 279 254 239 229 225 222 223 224 225 224
228 245 261 283 303 315 326 335 338 337 337 339 340 339 340 340 342 344 345 346 347 348 349 347 345 342 339 338 332 323 312 304 293 279 262 246 235 228 227 226 227 226 225
Height
5885 5885 5885 5884 5884 5884 5884 5883 5883 5882 5881 5880 5879 5878 5877 5875 5874 5873 5872 5871 5870 5869 5868 5867 5867 5866 5866 5865 5865 5865 5865 5865 5865 5866 5866 5866 5867 5867 5867 5867 5867 5867 5867
5885 5885 5884 5884 5884 5884 5883 5883 5882 5881 5880 5879 5878 5877 5876 5875 5873 5872 5871 5870 5869 5868 5867 5866 5865 5864 5864 5863 5863 5863 5863 5863 5863 5864 5864 5865 5865 5866 5866 5866 5867 5867 5867
5884 5884 5884 5884 5884 5883 5883 5882 5881 5880 5880 5879 5877 5876 5875 5874 5872 5871 5870 5868 5867 5866 5865 5864 5863 5862 5862 5861 5861 5861 5861 5861 5861 5862 5862 5863 5864 5864 5865 5865 5866 5866 5866
5884 5884 5884 5883 5883 5883 5882 5882 5881 5880 5879 5878 5876 5875 5874 5873 5871 5870 5868 5867 5866 5865 5863 5862 5861 5860 5859 5859 5859 5858 5858 5859 5859 5859 5860 5861 5862 5863 5863 5864 5865 5865 5865
5884 5883 5883 5883 5883 5882 5882 5881 5880 5879 5878 5877 5875 5874 5873 5871 5870 5868 5867 5865 5864 5863 5861 5860 5859 5858 5857 5857 5856 5856 5856 5856 5857 5857 5858 5859 5860 5861 5862 5863 5864 5864 5864
5883 5883 5883 5882 5882 5882 5881 5880 5879 5878 5877 5876 5874 5873 5871 5870 5868 5867 5865 5864 5862 5861 5859 5858 5857 5856 5855 5854 5854 5854 5853 5854 5854 5855 5855 5857 5858 5859 5860 5861 5862 5863 5863
5883 5883 5882 5882 5882 5881 5880 5879 5878 5877 5876 5874 5873 5871 5870 5868 5867 5865 5863 5862 5860 5859 5857 5856 5855 5854 5853 5852 5852 5851 5851 5851 5852 5853 5853 5854 5856 5857 5859 5860 5861 5862 5863
5882 5882 5882 5881 5881 5880 5879 5878 5877 5876 5875 5873 5872 5870 5868 5867 5865 5863 5861 5860 5858 5857 5855 5854 5853 5852 5851 5850 5849 5849 5849 5849 5850 5850 5851 5852 5854 5855 5857 5858 5860 5861 5862
5882 5882 5881 5881 5880 5879 5878 5877 5876 5875 5873 5872 5870 5868 5867 5865 5863 5861 5859 5858 5856 5854 5853 5852 5850 5849 5848 5847 5847 5846 5846 5846 5847 5848 5849 5850 5851 5853 5855 5856 5858 5860 5861
5881 5881 5881 5880 5879 5878 5877 5876 5875 5874 5872 5870 5869 5867 5865 5863 5861 5859 5858 5856 5854 5852 5851 5849 5848 5847 5846 5845 5844 5844 5844 5844 5844 5845 5846 5847 5849 5851 5852 5854 5856 5858 5860
5881 5880 5880 5879 5878 5877 5876 5875 5874 5872 5871 5869 5867 5865 5863 5861 5859 5857 5856 5854 5852 5850 5849 5847 5846 5844 5843 5842 5841 5841 5841 5841 5842 5843 5844 5845 5847 5848 5850 5852 5855 5857 5859
5880 5880 5879 5878 5877 5876 5875 5874 5872 5871 5869 5868 5866 5864 5862 5860 5858 5856 5854 5852 5850 5848 5846 5845 5843 5842 5840 5839 5839 5838 5838 5839 5839 5840 5841 5843 5844 5846 5848 5850 5853 5855 5857
5879 5879 5878 5877 5876 5875 5874 5873 5871 5870 5868 5866 5864 5862 5860 5858 5856 5854 5853 5850 5848 5846 5844 5842 5841 5839 5838 5836 5836 5835 5835 5836 5836 5837 5839 5840 5842 5844 5846 5848 5851 5853 5856
5878 5877 5876 5875 5875 5874 5872 5871 5870 5868 5867 5865 5863 5861 5859 5857 5855 5853 5851 5848 5846 5844 5842 5840 5838 5836 5835 5833 5833 5832 5832 5833 5833 5834 5836 5837 5839 5841 5844 5846 5849 5851 5854
5876 5875 5874 5874 5873 5872 5871 5870 5869 5867 5865 5864 5862 5860 5858 5856 5854 5851 5849 5846 5844 5842 5839 5837 5835 5833 5832 5831 5830 5829 5829 5830 5830 5832 5833 5835 5836 5839 5841 5844 5846 5849 5852
5874 5874 5873 5872 5872 5871 5870 5869 5867 5866 5864 5862 5861 5859 5856 5854 5852 5850 5847 5845 5842 5840 5837 5835 5833 5831 5829 5828 5827 5826 5826 5827 5827 5829 5830 5832 5834 5836 5838 5841 5844 5847 5850
5873 5872 5872 5871 5870 5870 5868 5867 5866 5864 5863 5861 5860 5858 5855 5853 5851 5848 5846 5843 5841 5838 5835 5833 5831 5829 5827 5826 5824 5824 5823 5824 5825 5826 5828 5829 5831 5834 5836 5839 5841 5844 5847
5872 5871 5870 5870 5869 5868 5867 5866 5865 5863 5862 5860 5859 5857 5855 5852 5850 5847 5845 5842 5839 5836 5834 5831 5829 5827 5825 5824 5822 5821 5821 5821 5822 5823 5825 5827 5829 5831 5833 5836 5839 5842 5845
5870 5870 5869 5868 5867 5867 5866 5864 5863 5862 5861 5859 5858 5856 5854 5852 5849 5847 5844 5841 5838 5835 5832 5830 5828 5826 5824 5822 5821 5819 5819 5819 5820 5821 5822 5824 5826 5828 5831 5834 5836 5839 5842
5869 5868 5868 5867 5866 5865 5864 5863 5862 5861 5860 5858 5857 5855 5853 5851 5848 5846 5843 5840 5837 5834 5831 5829 5827 5824 5822 5821 5819 5818 5817 5817 5817 5818 5820 5822 5824 5826 5828 5831 5834 5837 5840
5867 5867 5867 5866 5865 5864 5863 5862 5861 5860 5859 5857 5856 5854 5852 5850 5847 5845 5842 5839 5836 5833 5831 5828 5826 5823 5821 5819 5818 5816 5815 5815 5815 5816 5817 5819 5821 5823 5826 5828 5831 5834 5837
5866 5866 5866 5865 5864 5863 5862 5861 5860 5859 5858 5856 5854 5853 5851 5849 5846 5844 5841 5838 5836 5833 5830 5827 5825 5823 5820 5818 5817 5815 5814 5814 5813 5814 5815 5817 5818 5821 5823 5826 5828 5831 5834
5865 5865 5864 5864 5863 5862 5861 5860 5859 5858 5857 5855 5853 5852 5850 5848 5845 5843 5840 5838 5835 5832 5829 5827 5824 5822 5819 5817 5815 5814 5812 5812 5812 5812 5813 5814 5816 5818 5820 5823 5825 5828 5830
5863 5863 5863 5862 5862 5861 5860 5859 5859 5857 5856 5854 5852 5851 5849 5847 5844 5842 5839 5837 5834 5832 5829 5826 5823 5821 5818 5816 5814 5812 5812 5811 5810 5810 5811 5812 5813 5815 5817 5820 5822 5825 5827
5861 5861 5861 5861 5860 5860 5859 5858 5857 5856 5854 5853 5851 5849 5848 5845 5843 5841 5838 5836 5833 5831 5828 5825 5823 5820 5817 5815 5813 5811 5810 5809 5809 5809 5809 5810 5811 5813 5815 5817 5819 5821 5824
5859 5859 5859 5859 5859 5858 5858 5857 5856 5855 5853 5851 5850 5848 5846 5844 5842 5840 5837 5835 5832 5829 5827 5824 5821 5819 5816 5814 5811 5810 5808 5808 5807 5807 5807 5808 5809 5810 5812 5814 5816 5818 5820